Time,TemperatureF,DewpointF,PressureIn,WindDirection,WindDirectionDegrees,WindSpeedMPH,WindSpeedGustMPH,Humidity,HourlyPrecipIn,Conditions,Clouds,dailyrainin,SoftwareType,DateUTC
2013-07-28 00:02:00,57.0,47.0,-100.00,West,275,4.0,4.0,70,-99.99,,,-99.99,,2013-07-28 05:02:00,
2013-07-28 00:12:00,57.0,46.0,-100.00,West,260,3.0,4.0,69,-99.99,,,-99.99,,2013-07-28 05:12:00,
2013-07-28 00:22:00,56.0,46.0,-100.00,WSW,245,2.0,2.0,70,-99.99,,,-99.99,,2013-07-28 05:22:00,
2013-07-28 00:32:00,55.0,47.0,-100.00,West,270,2.0,2.0,72,-99.99,,,-99.99,,2013-07-28 05:32:00,
2013-07-28 00:43:00,55.0,46.0,-100.00,West,280,2.0,4.0,73,-99.99,,,-99.99,,2013-07-28 05:43:00,
2013-07-28 00:52:00,55.0,47.0,-100.00,WNW,290,1.0,2.0,74,-99.99,,,-99.99,,2013-07-28 05:52:00,
2013-07-28 01:02:00,55.0,47.0,-100.00,WNW,290,1.0,2.0,74,-99.99,,,-99.99,,2013-07-28 06:02:00,
2013-07-28 01:12:00,55.0,47.0,-100.00,West,260,4.0,5.0,77,-99.99,,,-99.99,,2013-07-28 06:12:00,
2013-07-28 01:22:00,54.0,48.0,-100.00,West,275,5.0,6.0,79,-99.99,,,-99.99,,2013-07-28 06:22:00,
2013-07-28 01:32:00,54.0,48.0,-100.00,West,275,5.0,6.0,79,-99.99,,,-99.99,,2013-07-28 06:32:00,
2013-07-28 01:43:00,54.0,48.0,-100.00,West,270,4.0,5.0,82,-99.99,,,-99.99,,2013-07-28 06:43:00,
2013-07-28 01:52:00,54.0,49.0,-100.00,West,270,4.0,5.0,83,-99.99,,,-99.99,,2013-07-28 06:52:00,
2013-07-28 02:02:00,53.0,48.0,-100.00,West,280,5.0,6.0,83,-99.99,,,-99.99,,2013-07-28 07:02:00,
2013-07-28 02:12:00,53.0,48.0,-100.00,West,280,5.0,6.0,83,-99.99,,,-99.99,,2013-07-28 07:12:00,
2013-07-28 02:22:00,53.0,48.0,-100.00,West,275,6.0,7.0,83,-99.99,,,-99.99,,2013-07-28 07:22:00,
2013-07-28 02:32:00,53.0,48.0,-100.00,West,270,6.0,6.0,83,-99.99,,,-99.99,,2013-07-28 07:32:00,
2013-07-28 02:43:00,53.0,48.0,-100.00,WNW,285,6.0,7.0,83,-99.99,,,-99.99,,2013-07-28 07:43:00,
2013-07-28 02:53:00,53.0,48.0,-100.00,West,270,5.0,6.0,84,-99.99,,,-99.99,,2013-07-28 07:53:00,
2013-07-28 03:02:00,53.0,48.0,-100.00,West,275,4.0,6.0,84,-99.99,,,-99.99,,2013-07-28 08:02:00,
2013-07-28 03:12:00,53.0,48.0,-100.00,West,280,4.0,5.0,83,-99.99,,,-99.99,,2013-07-28 08:12:00,
2013-07-28 03:22:00,53.0,48.0,-100.00,West,270,5.0,6.0,83,-99.99,,,-99.99,,2013-07-28 08:22:00,
2013-07-28 03:33:00,53.0,48.0,-100.00,West,275,6.0,7.0,82,-99.99,,,-99.99,,2013-07-28 08:33:00,
2013-07-28 03:42:00,53.0,47.0,-100.00,West,275,5.0,7.0,82,-99.99,,,-99.99,,2013-07-28 08:42:00,
2013-07-28 03:53:00,53.0,47.0,-100.00,West,265,6.0,8.0,81,-99.99,,,-99.99,,2013-07-28 08:53:00,
2013-07-28 04:02:00,53.0,47.0,-100.00,West,265,6.0,8.0,81,-99.99,,,-99.99,,2013-07-28 09:02:00,
2013-07-28 04:12:00,53.0,47.0,-100.00,West,265,6.0,8.0,81,-99.99,,,-99.99,,2013-07-28 09:12:00,
2013-07-28 04:22:00,53.0,47.0,-100.00,West,265,6.0,8.0,81,-99.99,,,-99.99,,2013-07-28 09:22:00,
2013-07-28 04:32:00,52.0,46.0,-100.00,WNW,290,4.0,5.0,79,-99.99,,,-99.99,,2013-07-28 09:32:00,
2013-07-28 04:43:00,52.0,46.0,-100.00,West,275,4.0,6.0,80,-99.99,,,-99.99,,2013-07-28 09:43:00,
2013-07-28 04:53:00,52.0,46.0,-100.00,WNW,285,4.0,6.0,80,-99.99,,,-99.99,,2013-07-28 09:53:00,
2013-07-28 05:02:00,52.0,46.0,-100.00,WNW,290,4.0,6.0,80,-99.99,,,-99.99,,2013-07-28 10:02:00,
2013-07-28 05:12:00,51.0,46.0,-100.00,WNW,285,4.0,5.0,82,-99.99,,,-99.99,,2013-07-28 10:12:00,
2013-07-28 05:22:00,51.0,46.0,-100.00,WNW,285,4.0,5.0,82,-99.99,,,-99.99,,2013-07-28 10:22:00,
2013-07-28 05:33:00,51.0,46.0,-100.00,WNW,300,4.0,6.0,84,-99.99,,,-99.99,,2013-07-28 10:33:00,
2013-07-28 05:42:00,51.0,47.0,-100.00,West,280,4.0,5.0,86,-99.99,,,-99.99,,2013-07-28 10:42:00,
2013-07-28 05:52:00,51.0,47.0,-100.00,West,280,4.0,5.0,86,-99.99,,,-99.99,,2013-07-28 10:52:00,
2013-07-28 06:12:00,50.0,47.0,-100.00,West,280,5.0,6.0,89,-99.99,,,-99.99,,2013-07-28 11:12:00,
2013-07-28 06:22:00,50.0,47.0,-100.00,WNW,290,6.0,7.0,90,-99.99,,,-99.99,,2013-07-28 11:22:00,
2013-07-28 06:33:00,51.0,47.0,-100.00,WNW,290,6.0,8.0,89,-99.99,,,-99.99,,2013-07-28 11:33:00,
2013-07-28 06:43:00,51.0,47.0,-100.00,WNW,290,6.0,8.0,89,-99.99,,,-99.99,,2013-07-28 11:43:00,
2013-07-28 07:02:00,52.0,48.0,-100.00,WNW,300,7.0,9.0,86,-99.99,,,-99.99,,2013-07-28 12:02:00,
2013-07-28 07:12:00,52.0,48.0,-100.00,WNW,290,6.0,7.0,85,-99.99,,,-99.99,,2013-07-28 12:12:00,
2013-07-28 07:22:00,53.0,47.0,-100.00,WNW,285,7.0,9.0,82,-99.99,,,-99.99,,2013-07-28 12:22:00,
2013-07-28 07:33:00,54.0,47.0,-100.00,WNW,300,6.0,7.0,79,-99.99,,,-99.99,,2013-07-28 12:33:00,
2013-07-28 07:43:00,55.0,48.0,-100.00,West,280,3.0,4.0,77,-99.99,,,-99.99,,2013-07-28 12:43:00,
2013-07-28 07:53:00,56.0,48.0,-100.00,WNW,295,4.0,6.0,74,-99.99,,,-99.99,,2013-07-28 12:53:00,
2013-07-28 08:02:00,56.0,48.0,-100.00,WNW,295,4.0,6.0,74,-99.99,,,-99.99,,2013-07-28 13:02:00,
2013-07-28 08:12:00,57.0,47.0,-100.00,West,275,4.0,6.0,69,-99.99,,,-99.99,,2013-07-28 13:12:00,
2013-07-28 08:32:00,58.0,47.0,-100.00,West,270,4.0,6.0,67,-99.99,,,-99.99,,2013-07-28 13:32:00,
2013-07-28 08:43:00,60.0,47.0,-100.00,NW,310,5.0,6.0,64,-99.99,,,-99.99,,2013-07-28 13:43:00,
2013-07-28 09:12:00,61.0,45.0,-100.00,NNW,340,4.0,6.0,55,-99.99,,,-99.99,,2013-07-28 14:12:00,
2013-07-28 09:23:00,61.0,45.0,-100.00,NNW,340,4.0,6.0,55,-99.99,,,-99.99,,2013-07-28 14:23:00,
2013-07-28 09:33:00,63.0,44.0,-100.00,NW,315,8.0,9.0,51,-99.99,,,-99.99,,2013-07-28 14:33:00,
2013-07-28 09:43:00,63.0,44.0,-100.00,NW,315,8.0,9.0,51,-99.99,,,-99.99,,2013-07-28 14:43:00,
2013-07-28 09:53:00,63.0,44.0,-100.00,NW,315,8.0,9.0,51,-99.99,,,-99.99,,2013-07-28 14:53:00,
2013-07-28 10:03:00,65.0,43.0,-100.00,NW,315,9.0,12.0,46,-99.99,,,-99.99,,2013-07-28 15:03:00,
2013-07-28 10:13:00,65.0,44.0,-100.00,NW,310,8.0,9.0,46,-99.99,,,-99.99,,2013-07-28 15:13:00,
2013-07-28 10:22:00,65.0,43.0,-100.00,NNW,335,6.0,8.0,45,-99.99,,,-99.99,,2013-07-28 15:22:00,
2013-07-28 10:32:00,66.0,45.0,-100.00,NNW,340,8.0,11.0,46,-99.99,,,-99.99,,2013-07-28 15:32:00,
2013-07-28 10:43:00,66.0,45.0,-100.00,NNW,340,8.0,11.0,46,-99.99,,,-99.99,,2013-07-28 15:43:00,
2013-07-28 11:02:00,66.0,43.0,-100.00,NW,320,10.0,12.0,44,-99.99,,,-99.99,,2013-07-28 16:02:00,
2013-07-28 11:12:00,66.0,43.0,-100.00,NW,305,14.0,16.0,43,-99.99,,,-99.99,,2013-07-28 16:12:00,
2013-07-28 11:22:00,68.0,44.0,-100.00,NNW,330,9.0,12.0,42,-99.99,,,-99.99,,2013-07-28 16:22:00,
2013-07-28 11:33:00,68.0,44.0,-100.00,NNW,330,9.0,12.0,42,-99.99,,,-99.99,,2013-07-28 16:33:00,
2013-07-28 11:43:00,70.0,44.0,-100.00,NW,315,5.0,7.0,40,-99.99,,,-99.99,,2013-07-28 16:43:00,
2013-07-28 12:02:00,70.0,43.0,-100.00,NW,320,13.0,16.0,38,-99.99,,,-99.99,,2013-07-28 17:02:00,
2013-07-28 12:12:00,70.0,44.0,-100.00,WNW,295,8.0,9.0,39,-99.99,,,-99.99,,2013-07-28 17:12:00,
2013-07-28 12:23:00,70.0,42.0,-100.00,NW,320,8.0,10.0,37,-99.99,,,-99.99,,2013-07-28 17:23:00,
2013-07-28 12:32:00,70.0,42.0,-100.00,NW,320,8.0,10.0,37,-99.99,,,-99.99,,2013-07-28 17:32:00,
2013-07-28 12:43:00,70.0,42.0,-100.00,NW,320,8.0,10.0,37,-99.99,,,-99.99,,2013-07-28 17:43:00,
2013-07-28 13:12:00,72.0,42.0,-100.00,NW,315,11.0,14.0,34,-99.99,,,-99.99,,2013-07-28 18:12:00,
2013-07-28 13:22:00,73.0,43.0,-100.00,NNW,330,12.0,16.0,34,-99.99,,,-99.99,,2013-07-28 18:22:00,
2013-07-28 13:33:00,73.0,42.0,-100.00,NW,310,9.0,13.0,33,-99.99,,,-99.99,,2013-07-28 18:33:00,
2013-07-28 13:43:00,73.0,42.0,-100.00,NW,310,9.0,13.0,33,-99.99,,,-99.99,,2013-07-28 18:43:00,
2013-07-28 13:52:00,73.0,42.0,-100.00,NW,310,9.0,13.0,33,-99.99,,,-99.99,,2013-07-28 18:52:00,
2013-07-28 14:02:00,73.0,43.0,-100.00,NW,315,6.0,7.0,34,-99.99,,,-99.99,,2013-07-28 19:02:00,
2013-07-28 14:12:00,74.0,42.0,-100.00,NNW,345,11.0,13.0,32,-99.99,,,-99.99,,2013-07-28 19:12:00,
2013-07-28 14:22:00,74.0,42.0,-100.00,NNW,345,11.0,13.0,32,-99.99,,,-99.99,,2013-07-28 19:22:00,
2013-07-28 14:33:00,74.0,42.0,-100.00,NNW,345,11.0,13.0,32,-99.99,,,-99.99,,2013-07-28 19:33:00,
2013-07-28 14:43:00,74.0,43.0,-100.00,NW,315,9.0,12.0,32,-99.99,,,-99.99,,2013-07-28 19:43:00,
2013-07-28 15:02:00,75.0,43.0,-100.00,NNW,330,12.0,15.0,32,-99.99,,,-99.99,,2013-07-28 20:02:00,
2013-07-28 15:12:00,74.0,41.0,-100.00,WNW,300,15.0,21.0,31,-99.99,,,-99.99,,2013-07-28 20:12:00,
2013-07-28 15:23:00,74.0,41.0,-100.00,WNW,300,15.0,21.0,31,-99.99,,,-99.99,,2013-07-28 20:23:00,
2013-07-28 15:33:00,75.0,41.0,-100.00,NW,325,10.0,12.0,30,-99.99,,,-99.99,,2013-07-28 20:33:00,
2013-07-28 15:43:00,75.0,41.0,-100.00,NW,325,10.0,12.0,30,-99.99,,,-99.99,,2013-07-28 20:43:00,
2013-07-28 16:03:00,75.0,41.0,-100.00,WNW,295,11.0,14.0,30,-99.99,,,-99.99,,2013-07-28 21:03:00,
2013-07-28 16:12:00,76.0,42.0,-100.00,WNW,300,11.0,13.0,30,-99.99,,,-99.99,,2013-07-28 21:12:00,
2013-07-28 16:22:00,77.0,44.0,-100.00,WNW,300,6.0,8.0,30,-99.99,,,-99.99,,2013-07-28 21:22:00,
2013-07-28 16:33:00,76.0,42.0,-100.00,NW,320,12.0,14.0,30,-99.99,,,-99.99,,2013-07-28 21:33:00,
2013-07-28 16:44:00,76.0,41.0,-100.00,NW,315,9.0,15.0,29,-99.99,,,-99.99,,2013-07-28 21:44:00,
2013-07-28 16:52:00,77.0,42.0,-100.00,WNW,295,6.0,9.0,28,-99.99,,,-99.99,,2013-07-28 21:52:00,
2013-07-28 17:02:00,77.0,42.0,-100.00,WNW,295,6.0,9.0,28,-99.99,,,-99.99,,2013-07-28 22:02:00,
2013-07-28 17:22:00,76.0,41.0,-100.00,NW,325,14.0,16.0,28,-99.99,,,-99.99,,2013-07-28 22:22:00,
2013-07-28 17:32:00,77.0,42.0,-100.00,NW,305,8.0,11.0,29,-99.99,,,-99.99,,2013-07-28 22:32:00,
2013-07-28 17:43:00,76.0,42.0,-100.00,WNW,285,7.0,10.0,29,-99.99,,,-99.99,,2013-07-28 22:43:00,
2013-07-28 18:03:00,78.0,43.0,-100.00,NW,320,8.0,10.0,29,-99.99,,,-99.99,,2013-07-28 23:03:00,
2013-07-28 18:12:00,77.0,41.0,-100.00,NW,305,9.0,12.0,28,-99.99,,,-99.99,,2013-07-28 23:12:00,
2013-07-28 18:22:00,77.0,41.0,-100.00,NW,305,9.0,12.0,28,-99.99,,,-99.99,,2013-07-28 23:22:00,
2013-07-28 18:32:00,76.0,41.0,-100.00,NW,320,11.0,12.0,28,-99.99,,,-99.99,,2013-07-28 23:32:00,
2013-07-28 18:43:00,76.0,41.0,-100.00,NW,320,11.0,12.0,28,-99.99,,,-99.99,,2013-07-28 23:43:00,
2013-07-28 18:53:00,77.0,42.0,-100.00,WNW,300,8.0,12.0,29,-99.99,,,-99.99,,2013-07-28 23:53:00,
2013-07-28 19:03:00,77.0,42.0,-100.00,WNW,295,6.0,7.0,29,-99.99,,,-99.99,,2013-07-29 00:03:00,
2013-07-28 19:22:00,77.0,42.0,-100.00,NW,310,5.0,6.0,29,-99.99,,,-99.99,,2013-07-29 00:22:00,
2013-07-28 19:32:00,75.0,42.0,-100.00,NW,310,8.0,9.0,30,-99.99,,,-99.99,,2013-07-29 00:32:00,
2013-07-28 19:43:00,75.0,42.0,-100.00,NW,305,6.0,7.0,30,-99.99,,,-99.99,,2013-07-29 00:43:00,
2013-07-28 19:52:00,74.0,41.0,-100.00,WNW,285,6.0,7.0,30,-99.99,,,-99.99,,2013-07-29 00:52:00,
2013-07-28 20:02:00,74.0,42.0,-100.00,WNW,295,4.0,6.0,32,-99.99,,,-99.99,,2013-07-29 01:02:00,
2013-07-28 20:13:00,73.0,42.0,-100.00,NW,305,5.0,6.0,32,-99.99,,,-99.99,,2013-07-29 01:13:00,
2013-07-28 20:35:00,71.0,42.0,-100.00,WNW,285,4.0,5.0,34,-99.99,,,-99.99,,2013-07-29 01:35:00,
2013-07-28 20:44:00,71.0,42.0,-100.00,WNW,295,3.0,4.0,35,-99.99,,,-99.99,,2013-07-29 01:44:00,
2013-07-28 22:03:00,65.0,45.0,-100.00,NNW,335,1.0,1.0,48,-99.99,,,-99.99,,2013-07-29 03:03:00,
2013-07-28 22:48:00,63.0,52.0,-100.00,NNE,25,1.0,2.0,69,-99.99,,,-99.99,,2013-07-29 03:48:00,
2013-07-28 23:02:00,63.0,53.0,-100.00,East,80,2.0,2.0,71,-99.99,,,-99.99,,2013-07-29 04:02:00,
2013-07-28 23:12:00,62.0,52.0,-100.00,East,85,2.0,3.0,70,-99.99,,,-99.99,,2013-07-29 04:12:00,
2013-07-28 23:22:00,63.0,52.0,-100.00,ENE,70,4.0,4.0,69,-99.99,,,-99.99,,2013-07-29 04:22:00,
2013-07-28 23:32:00,62.0,51.0,-100.00,East,90,2.0,2.0,68,-99.99,,,-99.99,,2013-07-29 04:32:00,
2013-07-28 23:43:00,62.0,51.0,-100.00,ENE,60,2.0,2.0,68,-99.99,,,-99.99,,2013-07-29 04:43:00,